RH
98 98 90 97 97 96 90 92 85 98 93 96 96 96 96 96 96 95 94 83 98 97 95 98 100 99 100 81 93 80 71 90 96 94 77 74 57 61 88 77 61 83 98 64
88 97 87 95 96 98 98 97 98 97 92 95 96 97 96 96 96 96 92 76 57 66 75 84 88 85 80 81 82 89 92 90 92 98 100 97 100 96 100 97 100 98 97 90
99 97 92 94 94 96 100 97 96 90 96 96 97 96 97 98 96 91 72 58 52 44 40 38 36 39 51 60 62 65 72 80 84 85 84 83 99 100 99 100 100 100 100 96
97 97 93 94 95 96 95 97 98 98 100 100 98 98 98 97 86 77 72 64 55 49 44 41 36 32 31 33 32 33 44 66 78 86 91 96 98 99 100 100 100 96 92 98
98 99 96 96 96 98 93 100 100 100 98 96 96 98 98 92 86 78 72 68 63 59 56 54 49 44 42 38 34 32 29 28 29 44 69 78 82 90 93 94 98 97 97 100
96 96 93 96 95 95 93 94 95 98 98 95 93 94 88 84 86 85 83 79 75 72 70 67 61 58 56 52 49 44 40 36 32 29 30 32 40 63 72 76 83 91 94 94
93 97 95 96 96 96 99 91 96 95 90 86 89 82 78 75 76 73 70 68 69 70 69 66 64 63 61 59 57 54 53 50 48 44 39 36 33 33 37 53 63 70 73 72
95 96 95 96 97 93 91 96 96 95 92 91 87 84 84 82 79 74 69 66 64 61 56 53 52 52 49 48 45 44 43 43 42 43 44 45 44 42 40 38 36 38 44 60
95 95 95 96 97 96 98 99 96 87 76 70 66 66 65 65 66 63 61 60 58 56 53 52 54 56 54 50 48 47 49 52 51 49 46 42 40 39 39 39 40 40 39 38
95 96 97 98 97 97 98 98 90 82 77 76 74 71 68 66 64 62 62 60 57 54 52 50 48 46 43 43 42 40 39 38 36 37 36 39 46 49 48 44 41 39 38 38
95 95 96 97 97 97 98 97 92 87 81 78 74 71 68 66 64 62 60 56 53 49 45 40 34 29 24 21 17 14 14 14 14 14 17 21 28 34 37 41 46 48 47 45
94 92 95 95 94 96 97 96 92 85 75 66 62 62 63 61 60 58 54 48 40 28 17 13 12 12 13 13 13 13 13 13 13 13 13 13 13 14 15 18 24 35 44 49
92 94 96 92 92 90 83 72 56 48 50 60 62 61 58 54 51 43 30 16 13 13 13 14 14 13 12 12 11 11 10 10 9 8 8 8 9 11 13 15 17 22 28 38
95 96 93 86 62 50 46 49 62 64 60 58 57 56 51 34 17 14 14 14 13 12 11 10 9 8 7 6 5 5 5 5 5 5 5 5 5 5 6 7 11 15 20 27
95 95 83 59 53 44 56 74 68 64 62 57 40 17 13 14 14 14 14 14 12 10 9 6 6 6 6 5 5 5 5 5 5 5 5 5 5 6 6 6 6 8 12 19
85 75 64 58 52 54 76 75 66 55 24 14 14 14 14 14 14 14 12 10 7 6 6 6 6 5 5 5 5 5 5 5 5 6 6 6 7 7 7 8 8 8 10 14
60 58 58 57 70 81 70 50 16 14 15 14 14 14 14 13 10 8 7 7 6 6 6 5 5 5 5 5 6 6 6 7 8 9 10 10 11 11 11 11 11 11 12 15
66 62 79 78 68 50 17 14 16 15 16 16 14 12 10 9 8 8 7 7 6 5 5 5 5 6 6 7 7 8 8 10 11 13 14 14 14 14 14 14 14 14 14 16
80 76 66 54 19 15 16 16 17 17 15 15 14 13 11 10 9 8 7 6 6 6 6 6 7 8 8 9 11 12 13 14 16 16 16 16 16 16 16 16 16 16 17 18
70 67 37 15 17 17 18 20 19 20 19 18 18 17 14 12 10 8 7 6 6 7 8 9 10 10 11 12 14 15 16 16 16 16 16 17 18 18 17 17 16 17 18 21
64 24 15 17 19 21 22 23 24 24 25 24 21 18 17 14 11 9 7 7 8 9 10 11 13 14 14 15 15 15 16 16 16 17 17 18 20 21 20 19 19 19 20 22
17 16 18 20 22 23 25 26 26 26 25 24 22 20 18 16 12 9 8 8 10 11 12 14 15 16 17 18 19 20 20 20 21 21 21 22 23 24 25 25 26 25 24 24
16 18 20 22 23 25 26 28 28 27 28 26 25 23 18 14 11 8 9 10 11 12 14 16 18 20 21 24 25 26 28 28 29 28 27 26 26 27 30 31 32 33 33 32
18 20 22 23 24 26 28 30 30 31 31 28 25 22 18 12 10 10 10 11 12 14 16 17 19 22 25 28 30 32 34 35 37 38 38 37 35 32 31 32 35 37 37 37
19 20 22 23 25 27 29 31 34 34 32 27 24 22 15 10 9 10 11 12 14 18 23 28 31 34 37 38 40 42 43 44 46 47 49 49 50 48 44 38 36 37 39 39
19 20 22 24 25 27 28 31 36 38 32 26 22 16 11 10 10 11 14 20 27 33 37 41 46 51 56 59 61 63 63 62 61 60 60 61 63 64 63 60 52 44 42 43
18 20 21 23 23 24 25 28 38 38 31 25 18 12 10 11 12 19 26 31 34 36 38 41 43 45 50 58 67 76 84 91 96 95 92 87 83 80 81 77 75 70 58 49
Wind_Speed
17 16 15 15 23 13 12 12 8 14 13 9 12 14 19 20 21 22 22 22 28 28 24 22 19 12 4 6 1 7 18 16 14 16 20 25 27 32 26 28 32 34 37 41
15 3 3 22 15 18 22 22 22 16 13 10 11 13 13 17 21 23 23 24 23 23 24 26 27 25 19 16 12 10 3 9 12 14 13 16 21 20 28 26 24 35 35 38
4 4 1 4 16 16 16 16 16 14 11 10 11 11 14 18 20 20 21 21 21 23 24 23 22 23 22 23 23 20 17 13 6 11 18 21 19 21 23 23 28 25 32 34
6 7 2 3 3 9 13 13 11 10 10 10 11 13 13 14 17 19 19 19 20 22 23 23 22 21 22 20 18 17 17 18 16 11 6 3 9 15 20 24 25 27 30 29
4 3 8 5 6 5 6 9 9 9 9 8 8 9 10 12 15 15 16 17 18 19 20 20 19 20 20 18 17 16 15 15 15 16 17 15 11 6 9 14 15 18 20 23
3 3 4 6 8 10 6 5 7 8 7 7 7 6 8 10 12 13 14 15 16 17 18 16 15 16 16 15 14 12 12 13 14 14 13 12 12 14 13 10 8 7 8 13
2 1 2 3 11 8 2 3 5 6 6 6 6 7 9 11 12 13 14 15 15 14 13 14 15 15 13 14 12 12 14 14 14 14 14 14 13 12 10 10 11 11 11 10
1 1 2 1 13 7 8 8 5 7 7 6 6 8 9 9 11 11 11 12 12 13 12 13 14 14 13 13 13 12 12 13 13 13 14 15 15 15 15 14 13 12 11 11
2 3 3 6 8 14 10 7 6 7 7 7 7 8 8 9 11 11 12 12 12 13 13 14 14 15 16 16 16 16 15 15 15 15 14 14 14 14 14 15 15 15 15 14
2 3 7 8 10 10 8 7 6 6 6 7 8 8 9 10 11 12 12 13 14 15 15 15 16 16 16 16 16 16 17 17 18 18 18 18 18 18 17 16 16 15 15 15
4 5 6 6 6 6 6 5 4 4 4 5 7 9 10 11 12 13 13 14 15 15 15 16 16 16 16 16 17 17 18 18 19 18 18 18 19 19 20 20 20 19 18 18
4 6 4 6 6 4 2 2 2 3 5 6 7 9 10 10 11 11 12 13 13 14 14 15 15 17 18 19 20 21 22 22 22 22 22 23 22 21 21 21 20 21 21 21
4 6 7 6 5 2 0 1 3 6 7 8 8 9 9 10 11 11 11 12 13 15 17 18 19 20 21 21 22 23 24 25 26 26 26 26 27 26 27 25 24 23 23 23
5 6 7 5 2 2 4 5 6 7 7 8 9 10 11 10 10 12 13 15 16 18 19 20 20 22 23 24 25 26 26 27 28 28 28 29 29 29 29 29 28 28 27 26
4 5 5 2 3 4 4 3 5 7 8 9 9 9 11 13 15 17 19 20 21 21 22 24 25 26 27 28 28 29 30 31 31 32 32 32 32 31 31 30 30 29 29 28
7 6 6 6 5 4 3 4 6 6 5 6 9 11 13 15 17 19 20 21 22 23 24 25 26 27 28 30 31 33 34 34 35 35 35 34 34 33 33 32 31 31 30 29
6 7 7 6 4 3 3 3 3 5 7 10 12 14 16 17 19 20 21 23 24 25 27 28 29 29 31 32 32 33 34 34 34 34 34 34 33 32 31 30 30 29 28 28
7 6 5 3 2 1 1 3 6 8 10 12 13 15 18 21 23 24 25 26 28 28 29 30 31 32 33 34 34 34 34 34 33 33 33 33 33 32 31 30 29 27 26 25
5 5 3 3 3 2 2 5 7 9 11 14 16 18 19 21 23 25 27 28 30 31 32 33 33 33 33 33 33 33 33 33 33 33 32 32 32 31 30 29 28 27 25 24
5 4 4 5 2 1 3 6 8 11 13 15 17 20 21 23 25 27 29 30 31 32 32 33 34 34 33 32 32 31 31 30 30 30 30 30 29 29 29 28 27 26 25 24
5 6 5 3 1 1 4 6 9 11 14 16 18 20 23 26 29 30 32 32 33 33 34 34 33 33 32 31 30 30 30 29 29 28 28 28 28 27 26 26 25 25 24 24
7 6 5 3 1 3 6 8 11 13 16 18 21 24 28 31 33 33 36 36 35 35 35 35 34 33 32 31 30 30 30 29 28 27 27 26 26 26 25 25 24 23 22 22
7 5 4 4 4 6 8 11 13 16 19 23 26 28 31 33 36 36 34 35 36 35 35 34 33 32 31 31 30 29 29 28 27 26 25 25 24 24 24 24 23 22 21 21
7 7 6 6 7 8 11 14 17 20 23 27 29 32 34 34 35 38 38 37 37 36 34 34 33 32 32 31 31 31 30 30 29 28 27 26 25 24 23 23 23 22 22 21
8 8 8 9 10 11 14 16 19 22 26 29 33 35 37 38 38 37 37 37 36 35 34 34 34 34 34 33 32 32 32 31 31 30 29 28 27 25 24 23 22 22 21 21
10 11 11 12 13 14 17 19 22 25 28 31 35 37 38 38 38 38 38 37 37 36 36 36 35 35 35 35 35 34 34 33 33 32 31 30 29 28 27 25 24 22 21 20
13 13 13 14 15 17 19 22 25 28 31 34 36 38 37 38 38 37 37 37 37 37 37 37 37 37 37 37 37 37 36 36 35 34 33 32 31 29 28 27 25 24 22 21
Wind_Direction
308 294 33 34 57 67 108 122 112 127 102 57 39 33 33 41 55 61 71 64 69 76 78 83 90 98 118 257 306 268 252 254 258 264 269 259 260 261 264 263 257 248 248 250
325 327 359 25 50 81 84 90 100 106 80 50 36 33 34 43 51 56 58 64 67 72 75 77 82 86 89 89 82 63 337 256 254 258 239 257 256 250 251 253 257 242 247 247
271 228 45 1 32 77 95 100 99 87 76 56 44 38 40 42 47 52 57 63 69 75 74 74 74 74 74 74 73 65 57 49 23 254 256 252 254 253 250 251 249 259 247 249
270 227 116 129 100 72 85 88 72 56 46 44 47 47 37 48 50 50 51 54 56 60 61 61 60 63 60 57 55 55 55 56 56 56 40 305 273 270 268 264 260 268 262 260
267 98 136 155 176 164 129 68 53 39 45 54 50 40 32 46 48 47 47 48 49 53 56 53 50 52 49 44 42 40 43 46 45 47 50 43 33 359 291 273 275 272 274 269
284 221 201 157 176 148 117 51 77 69 58 51 54 51 53 48 45 41 39 35 34 36 40 41 44 45 43 38 30 25 30 31 30 30 32 32 34 37 32 22 1 320 300 287
10 151 187 207 182 179 223 173 87 73 69 66 60 68 60 56 53 48 43 40 37 35 32 31 33 32 26 25 11 11 13 13 13 11 8 12 16 17 11 9 19 18 12 5
149 186 193 153 161 181 145 117 91 90 89 82 64 49 42 39 37 36 33 30 26 22 17 17 18 17 14 13 12 16 12 11 5 0 360 360 359 359 356 356 353 350 345 347
186 149 112 119 156 142 127 110 102 93 81 70 56 45 37 33 31 28 25 22 19 14 10 9 5 2 0 355 355 353 354 352 350 348 349 346 343 341 341 340 339 338 338 338
94 135 115 121 129 130 136 130 116 87 59 45 41 34 26 22 19 14 10 8 5 2 360 357 352 349 348 347 346 344 342 340 338 336 335 334 332 331 330 327 324 324 323 324
154 180 153 143 136 134 128 125 110 76 44 23 10 6 5 6 4 1 358 354 351 347 345 344 344 345 345 344 344 342 339 337 336 333 330 327 323 320 318 317 318 317 315 313
208 184 181 152 141 138 124 78 39 20 4 355 355 353 351 349 347 343 339 337 338 341 344 344 342 339 337 336 333 331 329 327 325 323 322 321 320 318 316 314 311 308 306 305
180 173 169 158 142 131 161 7 342 342 339 342 345 346 344 340 336 333 336 339 341 339 335 333 332 330 327 325 324 323 322 321 321 320 319 318 316 315 313 309 307 305 303 301
169 168 162 150 154 302 318 332 337 340 342 340 333 331 335 341 345 342 338 336 335 332 330 329 327 327 326 325 323 322 320 318 316 315 313 312 311 310 309 308 306 305 303 300
189 172 168 205 290 312 306 316 315 317 323 326 336 348 345 339 336 334 333 331 329 328 327 328 327 325 323 321 320 319 319 318 317 316 315 314 312 310 307 305 303 301 299 296
189 205 232 255 271 265 258 288 308 325 355 355 342 336 333 330 329 327 325 325 325 325 323 320 319 318 317 318 318 317 317 316 315 314 313 311 310 308 307 305 304 302 299 297
224 238 247 246 230 244 299 334 19 358 350 345 340 335 331 329 327 325 324 323 323 320 318 316 316 315 316 315 314 313 312 312 312 311 310 310 309 308 306 305 303 301 300 297
233 223 207 199 231 264 84 2 354 349 346 342 338 337 335 334 331 326 324 322 320 318 318 318 318 317 316 315 313 311 309 308 307 306 305 305 305 305 305 304 303 302 300 298
194 187 197 203 157 123 11 356 350 350 347 345 340 335 331 328 326 325 324 322 321 320 319 317 316 315 314 312 311 309 308 306 305 305 304 303 302 302 302 302 301 300 299 298
195 215 191 165 155 51 5 2 359 352 346 340 336 332 329 326 326 325 323 321 320 318 318 318 317 316 314 313 310 309 307 306 305 304 302 301 301 300 299 299 299 298 297 296
221 187 176 175 183 358 3 355 349 345 338 332 329 329 330 330 329 327 324 324 321 320 318 317 316 316 315 314 313 311 310 309 308 306 303 302 301 301 300 299 299 299 297 296
190 189 194 210 283 331 336 338 335 332 330 331 332 333 333 330 328 328 325 323 321 321 319 318 317 316 316 315 313 313 312 311 310 308 305 303 301 301 300 300 300 299 297 295
199 211 230 255 291 310 320 322 325 328 330 331 332 332 331 329 325 323 322 319 318 318 318 317 317 316 316 316 315 314 313 312 311 310 308 306 303 301 300 299 299 298 297 296
221 238 254 270 287 302 311 318 324 327 329 329 329 328 327 325 322 321 320 320 320 320 319 318 317 317 317 316 315 314 314 312 311 310 309 308 307 305 303 301 299 297 296 294
239 252 263 277 288 301 308 315 322 325 326 325 325 325 324 322 322 320 319 319 320 320 319 318 317 316 315 314 313 311 310 309 307 306 305 305 304 304 303 301 299 297 295 293
250 259 269 280 293 301 308 316 320 321 322 322 322 322 321 321 321 321 321 321 321 319 318 317 315 314 312 310 309 307 305 304 302 301 300 299 299 299 299 297 296 295 293 290
257 265 274 284 293 301 308 312 315 318 320 321 321 321 321 322 321 321 320 320 318 317 316 315 314 312 310 308 306 303 301 299 297 296 294 294 293 292 292 292 292 292 290 288